map of MEX home
Great Circle Mapper logo
MEX - Airport
Location
City:  México City, Distrito Federal, México
Near (Alt.):Ciudad de México
Name:Benito Juárez International Airport
ICAO / IATA:MMMX / MEX

Details
Type:Airport (Aerodrome, Airfield)
Use:Public/Civil, International (customs port of entry)
Latitude:19°26'11"N (19.436303)
Longitude:99°04'20"W (-99.072096)
Datum:WGS 1984
Elevation:7316 ft (2230 m)
Runways:2
Longest:12966 × 148 ft (3952 × 45 m), paved

Time
Time Zone:UTC-6 (DST-5)
Local Time:

Weather
METAR:MMMX 280146Z 02010KT 10SM BKN020 BKN080 21/11 A3031 NOSIG RMK 8/430 HZY
TAF:MMMX 271114Z 2712/2818 36005KT P6SM SCT080 BKN250 TX25/2722Z TN12/2712Z
FM271600 36005KT P6SM SCT015
FM272200 36012KT P6SM SCT020CB BKN100
FM280300 03005KT P6SM SCT020 SCT250
FM281600 30005KT P6SM SCT020

Related Locations
Nearby:
Farthest:NKW: 11425 mi / 18387 km
Diego Garcia, Chagos Archipelago, IO

Find:

   beyond  
but within

Other Information
Maps:
NOTAMs:
Links:
Sources:

  
flag of México   

Sectional Chart

Flight Planning
at skyvector.com

Satellite Image

Google Maps Satellite View

 

Copyright © 2004-2014 Karl L. Swartz. All rights reserved.
The Great Circle Mapper name and logo are trademarks of the Great Circle Mapper.
All other trademarks mentioned herein belong to their respective owners.
Please see credits for attibutions and further copyright information.

  Follow gcmap on Facebook Follow gcmap on Twitter

hCard Microformat

Geo Microformat